AirNav   Jet Aviation Boston
 
 1592 users online  

OR70 Pine Valley Airport
Halfway, Oregon, USA

GOING TO HALFWAY?


FAA INFORMATION EFFECTIVE 24 MAY 2018

Location

FAA Identifier: OR70
Lat/Long: 44-51-34.5740N / 117-05-16.6170W
44-51.576233N / 117-05.276950W
44.8596039 / -117.0879492
(estimated)
Elevation: 2577 ft. / 785 m (estimated)
Variation: 18E (1985)
From city: 2 miles SE of HALFWAY, OR
Time zone: UTC -7 (UTC -8 during Standard Time)
Zip code: 97834

Airport Operations

Airport use: Private use. Permission required prior to landing
Activation date: 03/1991
Control tower: no
ARTCC: SALT LAKE CITY CENTER
FSS: MC MINNVILLE FLIGHT SERVICE STATION
Attendance: UNATNDD
Segmented circle: no

Nearby radio navigation aids

VOR radial/distance  VOR name  Freq  Var
BKEr068/30.6BAKER CITY VOR/DME115.3020E
DNJr259/37.9DONNELLY VOR/DME116.2019E

Airport Services

Runway Information

Runway 8/26

Dimensions: 2000 x 30 ft. / 610 x 9 m
Surface: gravel/dirt, in good condition
RUNWAY 8  RUNWAY 26
Traffic pattern: leftleft

Airport Ownership and Management from official FAA records

Ownership: Privately-owned
Owner: GEORGE & LYNETTE HAUPTMAN
250 EAST RECORD LN, PO BOX 893
HALFWAY, OR 97834
Phone 541-742-4110
Manager: GEORGE HAUPTMAN
250 EAST RECORD LN, PO BOX 893
HALFWAY, OR 97834
Phone 541-742-4110

Airport Operational Statistics

Aircraft based on the field: 5
Single engine airplanes: 5
    

Additional Remarks

RECOMMEND ACFT LND TO THE WEST; TKOF TO THE EAST DUE TO HIGH TRRN TO THE WEST.
DEER ON RY.

Instrument Procedures

There are no published instrument procedures at OR70.

Some nearby airports with instrument procedures:

KBKE - Baker City Municipal Airport (31 nm W)
S87 - Weiser Municipal Airport (40 nm S)
KMYL - Mc Call Municipal Airport (42 nm E)
KLGD - La Grande/Union County Airport (47 nm NW)
KONO - Ontario Municipal Airport (51 nm S)
 
Loc | Ops | Rwys | IFR | FBO | Links
Com | Nav | Svcs | Stats | Notes

AirNav Hotels Sweepstakes
 
Area around OR70 (Pine Valley Airport)
 
Road maps at: MapQuest Bing Google
 
Aerial photo
WARNING: Photo may not be current or correct
Aerial photo of OR70 (Pine Valley Airport)
Do you have a better or more recent aerial photo of Pine Valley Airport that you would like to share? If so, please send us your photo.

 
Sectional chart

 
Airport distance calculator
Flying to Pine Valley Airport? Find the distance to fly.

From to OR70

Sunrise and sunset
Times for 25-May-2018
 Local
(UTC-7)
 Zulu
(UTC)
Morning civil twilight04:3611:36
Sunrise05:1112:11
Sunset20:2003:20
Evening civil twilight20:5503:55

Current date and time
Zulu (UTC)  25-May-2018 15:56:23
Local (UTC-7)  25-May-2018 08:56:23
 
METAR
KBKE 
31nm W 
251510Z AUTO 02005KT 6SM -RA BR BKN055 OVC085 14/12 A3000 RMK AO2 P0005 T01390117
KMYL 
42nm E 
251451Z AUTO 00000KT 10SM BKN090 BKN110 12/09 A3002 RMK AO2 SLP137 T01220094 53000
KLGD 
46nm NW 
251456Z AUTO 00000KT 10SM CLR 14/12 A2998 RMK AO2 SLP289 T01440117 53002
TAF
KBKE 
31nm W 
251120Z 2512/2612 VRB05KT P6SM SCT050 BKN100 FM251500 VRB05KT P6SM -SHRA VCTS OVC050CB FM251800 VRB05KT P6SM BKN100 FM260100 31012KT P6SM -SHRA OVC050 TEMPO 2601/2605 VRB20G30KT -TSRA OVC050CB FM260800 31012KT P6SM BKN100
NOTAMs
Click for the latest NOTAMs
NOTAMs are issued by the DoD/FAA and will open in a separate window not controlled by AirNav.

 

 
 

Would you like to see your business listed on this page?

 If your business provides an interesting product or service to pilots, flight crews, aircraft, or users of the Pine Valley Airport, you should consider listing it here.  To start the listing process, click on the button below
 
Add a business
 

Other Pages about Pine Valley Airport

Update a link
 
Copyright © AirNav, LLC. All rights reserved. Privacy Policy  Contact